Location: Peebles
(55.6412°N, 3.1714°W)
Time: 20:43:45
(UTC+01:00)

deb Kosmos-2123 - Pass Details

Date: 03 July 2022
Orbit: 942 x 985 km, 82.9° (Epoch: 17 August)

Event Time Altitude Azimuth Distance (km) Brightness Sun altitude
Exits shadow 02:28:11 12° 203° (SSW) 2,574 ? -9.9°
Maximum altitude 02:34:00 67° 285° (WNW) 1,063 ? -9.7°
Drops below altitude 10° 02:40:16 10° 8° (N) 2,741 ? -9.4°
Sets 02:42:49 0° 12° (NNE) 3,687 ? -9.3°
